Sanya Phoenix

Airport
ICAO code: 
ZJSY
Summary
ICAO Region: 
APAC
Territory: 
Location: 
Sanya, Hainan,
Serving: 
Sanya
Coordinates: 
Aerial View: 
18° 18' 14.144" N, 109° 24' 43.759" E
Metar
Observation
ZJSY 071600Z 36002MPS 310V040 9999 BKN050 23/16 Q1018 NOSIG
Station
Sanya/Fenghuang
Date/Time
2021-12-07 16:00:00
Wind direction
360°
Lowest cloud amount
broken clouds
Temperature
23°C
Dew point
16°C
Humidity
64%
QNH
1018 hPa
Weather condition
n/a

Description

Sanya Phoenix International Airport is an airport in Sanya, Hainan, People’s Republic of China (IATA: SYX). It is located about 15 km northwest of the city center.

Climatology

Tropical Monsoon climate (Köppen climate classification Am) - monthly mean temperatures above 18°C in every month of the year and features wet and dry seasons.

Runways

Designator Length Width Surface Rops
8/26 3400 45 CON Yes/Yes
Airport map: 
Aerial View: 

SKYbrary Partners:

Safety knowledge contributed by: